User: anonymous   Login
Location: Unspecified
(0.0000°N, 0.0000°E)
Time: 02:37:28
(UTC+00:00)
Language:

Landsat 7 - Orbit

View from above orbital plane
View from above orbital plane
View from above satellite
View from above satellite

Ground track
Ground track

The orbit data is extracted from the following two-line orbital elements,

1 25682U 99020A   14327.26444215  .00000793  00000-0  18603-3 0  8234
2 25682 098.2245 034.8213 0000747 075.3081 284.8193 14.57103640830151
Epoch (UTC): 23 November 2014 06:20:47
Eccentricity: 0.0000747
inclination: 98.2245°
perigee height: 702 km
apogee height: 703 km
right ascension of ascending node: 34.8213°
argument of perigee: 75.3081°
revolutions per day: 14.57103640
mean anomaly at epoch: 284.8193°
orbit number at epoch: 83015

The dashed part of the orbit path shows where the satellite is in the earth's shadow,  

DLR